Kaltag, AK

4:19 PM AKDT on July 27, 2017 (GMT -0800)
Kaltag

Weather History for PAKV - March, 2013

Change the Weather History Date:

Wednesday, March 27, 2013

  Actual Average (PAGA) Record (PAGA)
Temperature  
Mean Temperature -10 °F -  
Max Temperature 6 °F 20 °F 46 °F (1954)
Min Temperature -27 °F 2 °F -34 °F (1952)
Degree Days  
Heating Degree Days 76    
Moisture  
Dew Point -21 °F    
Average Humidity 63    
Maximum Humidity 78    
Minimum Humidity 45    
Precipitation  
Precipitation 0.00 in - - ()
Sea Level Pressure  
Sea Level Pressure 30.24 in    
Wind  
Wind Speed 1 mph (NNE)    
Max Wind Speed 6 mph    
Max Gust Speed -    
Visibility 10 miles    
Events      
Averages and records for this station are not official NWS values.
T = Trace of Precipitation, MM = Missing Value Source: NWS Daily Summary

Daily Weather History Graph

Daily Weather History Graph

Search for Another Location

Airport or City:

Trip Planner

Search our weather history database for the weather conditions in past years. The results will help you decide how hot, cold, wet, or windy it might be!

Date:

Astronomy

Mar. 27, 2013 Rise Set
Actual Time 8:08 AM AKDT 9:13 PM AKDT
Civil Twilight 7:19 AM AKDT 10:02 PM AKDT
Nautical Twilight 6:17 AM AKDT 11:05 PM AKDT
Astronomical Twilight 5:01 AM AKDT 12:23 AM AKDT
Moon 10:46 PM AKDT (3/27) 7:46 AM AKDT (3/27)
Length of Visible Light 14h 43m
Length of Day
13h 04m
Full, 100% of the Moon is Illuminated
Mar 27
Full
Apr 2
Last Quarter
Apr 10
New
Apr 18
First Quarter
Apr 25
Full

Hourly Weather History & Observations

Time (AKDT) Temp. Windchill Dew Point Humidity Pressure Visibility Wind Dir Wind Speed Gust Speed Precip Events Conditions
12:53 AM -16.1 °F - -23.1 °F 71% 30.27 in 10.0 mi Calm Calm - N/A   Clear
1:53 AM -18.9 °F - -24.0 °F 78% 30.28 in 10.0 mi Calm Calm - N/A   Clear
2:53 AM -22.0 °F - -27.9 °F 74% 30.29 in 10.0 mi Calm Calm - N/A   Clear
3:53 AM -24.0 °F - -29.9 °F 74% 30.29 in 10.0 mi Calm Calm - N/A   Clear
4:53 AM -25.1 °F - -32.1 °F 70% 30.28 in 10.0 mi Calm Calm - N/A   Clear
5:53 AM -26.0 °F - -33.0 °F 69% 30.29 in 10.0 mi Calm Calm - N/A   Clear
6:53 AM -27.0 °F - -33.0 °F 73% 30.30 in 10.0 mi Calm Calm - N/A   Clear
7:53 AM -26.0 °F -37.5 °F -32.1 °F 73% 30.30 in 10.0 mi SW 3.5 mph - N/A   Clear
8:53 AM -25.1 °F -36.5 °F -31.0 °F 74% 30.30 in 10.0 mi SW 3.5 mph - N/A   Clear
9:53 AM -20.9 °F -31.7 °F -27.0 °F 73% 30.29 in 10.0 mi WSW 3.5 mph - N/A   Clear
10:53 AM -11.9 °F - -20.0 °F 67% 30.28 in 10.0 mi Calm Calm - N/A   Clear
11:53 AM -8.0 °F - -18.0 °F 61% 30.27 in 10.0 mi Calm Calm - N/A   Clear
12:53 PM -4.0 °F - -17.0 °F 54% 30.27 in 10.0 mi Calm Calm - N/A   Clear
1:53 PM -0.9 °F - -15.0 °F 52% 30.25 in 10.0 mi Calm Calm - N/A   Clear
2:53 PM 1.9 °F - -14.1 °F 47% 30.25 in 10.0 mi Calm Calm - N/A   Clear
3:53 PM 3.9 °F -3.4 °F -11.0 °F 50% 30.23 in 10.0 mi NNE 3.5 mph - N/A   Clear
4:53 PM 6.1 °F -2.8 °F -11.0 °F 45% 30.21 in 10.0 mi NNE 4.6 mph - N/A   Clear
5:53 PM 5.0 °F -5.6 °F -11.0 °F 48% 30.19 in 10.0 mi NNE 5.8 mph - N/A   Clear
6:53 PM 3.9 °F -5.3 °F -11.0 °F 50% 30.18 in 10.0 mi NE 4.6 mph - N/A   Clear
7:53 PM 3.0 °F - -13.0 °F 47% 30.17 in 10.0 mi Calm Calm - N/A   Clear
8:53 PM -0.0 °F -7.9 °F -14.1 °F 52% 30.16 in 9.0 mi ENE 3.5 mph - N/A   Clear
9:53 PM -7.1 °F - -16.1 °F 65% 30.16 in 10.0 mi Calm Calm - N/A   Clear
10:53 PM -11.9 °F - -18.9 °F 71% 30.15 in 10.0 mi Calm Calm - N/A   Clear
11:53 PM -16.1 °F - -22.0 °F 74% 30.14 in 10.0 mi Calm Calm - N/A   Clear